TimeHST,TemperatureF,Dew PointF,Humidity,Sea Level PressureIn,VisibilityMPH,Wind Direction,Wind SpeedMPH,Gust SpeedMPH,PrecipitationIn,Events,Conditions,WindDirDegrees,DateUTC
12:53 AM,68.0,61.0,78,29.90,10.0,NNW,5.8,-,N/A,,Scattered Clouds,330,2013-01-17 10:53:00
1:53 AM,66.9,61.0,81,29.89,10.0,NW,3.5,-,N/A,,Scattered Clouds,320,2013-01-17 11:53:00
2:53 AM,66.9,61.0,81,29.88,10.0,NNW,3.5,-,N/A,,Scattered Clouds,340,2013-01-17 12:53:00
3:53 AM,66.0,61.0,84,29.86,10.0,NW,3.5,-,N/A,,Partly Cloudy,320,2013-01-17 13:53:00
4:53 AM,64.9,61.0,87,29.86,10.0,NNW,3.5,-,N/A,,Partly Cloudy,330,2013-01-17 14:53:00
5:53 AM,64.0,60.1,87,29.87,10.0,NNW,4.6,-,N/A,,Partly Cloudy,340,2013-01-17 15:53:00
6:53 AM,64.9,61.0,87,29.89,10.0,NNW,3.5,-,N/A,,Partly Cloudy,340,2013-01-17 16:53:00
7:53 AM,66.0,61.0,84,29.91,10.0,NNW,3.5,-,N/A,,Scattered Clouds,340,2013-01-17 17:53:00
8:53 AM,71.1,62.1,73,29.92,10.0,Calm,Calm,-,N/A,,Scattered Clouds,0,2013-01-17 18:53:00
9:53 AM,75.0,59.0,57,29.93,10.0,NW,4.6,-,N/A,,Scattered Clouds,320,2013-01-17 19:53:00
10:53 AM,77.0,57.0,50,29.92,10.0,Calm,Calm,-,N/A,,Scattered Clouds,0,2013-01-17 20:53:00
11:53 AM,77.0,57.9,52,29.89,10.0,SW,9.2,-,N/A,,Scattered Clouds,220,2013-01-17 21:53:00
12:53 PM,75.9,60.1,58,29.86,10.0,SW,10.4,-,N/A,,Scattered Clouds,220,2013-01-17 22:53:00
1:53 PM,78.1,59.0,52,29.84,10.0,SSW,11.5,-,N/A,,Scattered Clouds,210,2013-01-17 23:53:00
2:53 PM,77.0,57.9,52,29.82,10.0,WNW,8.1,16.1,N/A,,Mostly Cloudy,300,2013-01-18 00:53:00
3:53 PM,77.0,55.0,47,29.83,10.0,NW,10.4,-,N/A,,Scattered Clouds,320,2013-01-18 01:53:00
4:53 PM,78.1,54.0,43,29.84,10.0,West,10.4,-,N/A,,Scattered Clouds,280,2013-01-18 02:53:00
5:53 PM,75.0,54.0,48,29.88,10.0,North,10.4,-,N/A,,Partly Cloudy,350,2013-01-18 03:53:00
6:53 PM,73.0,55.0,53,29.89,10.0,NNW,5.8,-,N/A,,Partly Cloudy,340,2013-01-18 04:53:00
7:53 PM,71.1,59.0,66,29.91,10.0,North,4.6,-,N/A,,Scattered Clouds,360,2013-01-18 05:53:00
8:53 PM,69.1,59.0,70,29.92,10.0,Calm,Calm,-,N/A,,Partly Cloudy,0,2013-01-18 06:53:00
9:53 PM,68.0,60.1,76,29.92,10.0,NW,5.8,-,N/A,,Partly Cloudy,310,2013-01-18 07:53:00
10:53 PM,66.9,57.9,73,29.91,10.0,NNW,5.8,-,N/A,,Scattered Clouds,330,2013-01-18 08:53:00
11:53 PM,66.0,59.0,78,29.91,10.0,NW,6.9,-,N/A,,Partly Cloudy,320,2013-01-18 09:53:00